Terug naar catalogus

AO-91

ActiefAmateurradioSSO
NORAD 43017·PAYLOAD·🇺🇸 United States

Gelanceerd Nov 18, 2017 vanaf Vandenberg Space Force Base

Loading…

Volgende Passages (komende 24 uur)

TLE

VersSource: Space-Track

Epoch: Sep 14, 2026, 09:48 UTC

1 43017U 17073E   26257.40839724  .00006482  00000-0  27555-3 0  9999
2 43017  97.4553 122.8013 0148012  20.8764 339.8426 15.13898921478887

Volg AO-91 in realtime met AllMySat

Download on the App Store